| time (UTC) | temp F | wind direction | speed MPH | gust MPH | rain 1hr in | rain 24hr in | rain mn in | humidity % | barometer mb |
| 20260507213003 | 61 | 284 | 1.0 | 4.0 | 0.00 | 0.00 | 0.00 | 73 | 1011.2 |
| 20260507212503 | 62 | 285 | 1.0 | 4.0 | 0.00 | 0.00 | 0.00 | 72 | 1011.2 |
| 20260507212003 | 62 | 281 | 0.0 | 2.0 | 0.00 | 0.00 | 0.00 | 72 | 1011.2 |
| 20260507211503 | 62 | 281 | 0.0 | 2.0 | 0.00 | 0.00 | 0.00 | 71 | 1011.2 |
| 20260507211003 | 62 | 281 | 0.0 | 1.0 | 0.00 | 0.00 | 0.00 | 71 | 1011.1 |
| 20260507210503 | 62 | 281 | 1.0 | 2.0 | 0.00 | 0.00 | 0.00 | 71 | 1011.0 |
| 20260507210003 | 63 | 281 | 1.0 | 3.0 | 0.00 | 0.00 | 0.00 | 70 | 1011.0 |
| 20260507205503 | 63 | 281 | 1.0 | 3.0 | 0.00 | 0.00 | 0.00 | 70 | 1010.9 |
| 20260507205017 | 63 | 281 | 0.0 | 2.0 | 0.00 | 0.00 | 0.00 | 69 | 1010.9 |
| 20260507204503 | 64 | 281 | 0.0 | 1.0 | 0.00 | 0.00 | 0.00 | 68 | 1010.8 |
| 20260507204003 | 64 | 281 | 0.0 | 2.0 | 0.00 | 0.00 | 0.00 | 68 | 1010.8 |
| 20260507203503 | 64 | 281 | 1.0 | 2.0 | 0.00 | 0.00 | 0.00 | 66 | 1010.8 |
| 20260507203003 | 64 | 280 | 1.0 | 3.0 | 0.00 | 0.00 | 0.00 | 64 | 1010.6 |
| 20260507202503 | 64 | 276 | 2.0 | 3.0 | 0.00 | 0.00 | 0.00 | 64 | 1010.6 |
| 20260507202017 | 64 | 270 | 2.0 | 3.0 | 0.00 | 0.00 | 0.00 | 64 | 1010.6 |
| 20260507201517 | 65 | 264 | 1.0 | 3.0 | 0.00 | 0.00 | 0.00 | 64 | 1010.5 |
| 20260507201003 | 65 | 264 | 2.0 | 5.0 | 0.00 | 0.00 | 0.00 | 65 | 1010.6 |
| 20260507200517 | 65 | 264 | 2.0 | 5.0 | 0.00 | 0.00 | 0.00 | 65 | 1010.6 |
| 20260507200003 | 65 | 260 | 2.0 | 4.0 | 0.00 | 0.00 | 0.00 | 65 | 1010.4 |
| 20260507195517 | 65 | 257 | 2.0 | 4.0 | 0.00 | 0.00 | 0.00 | 65 | 1010.3 |
| 20260507195003 | 65 | 236 | 2.0 | 3.0 | 0.00 | 0.00 | 0.00 | 66 | 1010.1 |
| 20260507194517 | 65 | 204 | 1.0 | 3.0 | 0.00 | 0.00 | 0.00 | 66 | 1010.0 |
| 20260507194003 | 65 | 193 | 1.0 | 3.0 | 0.00 | 0.00 | 0.00 | 66 | 1010.0 |
| 20260507193517 | 65 | 203 | 1.0 | 4.0 | 0.00 | 0.00 | 0.00 | 65 | 1009.8 |
| 20260507193003 | 65 | 235 | 2.0 | 4.0 | 0.00 | 0.00 | 0.00 | 65 | 1009.8 |
| 20260507192503 | 65 | 247 | 2.0 | 4.0 | 0.00 | 0.00 | 0.00 | 65 | 1009.9 |
| 20260507192003 | 66 | 242 | 2.0 | 4.0 | 0.00 | 0.00 | 0.00 | 64 | 1009.9 |
| 20260507191503 | 66 | 191 | 2.0 | 4.0 | 0.00 | 0.00 | 0.00 | 63 | 1009.9 |
| 20260507191003 | 66 | 134 | 1.0 | 3.0 | 0.00 | 0.00 | 0.00 | 62 | 1009.9 |
| 20260507190504 | 67 | 99 | 0.0 | 2.0 | 0.00 | 0.00 | 0.00 | 63 | 1010.0 |
| 20260507190004 | 67 | 99 | 0.0 | 2.0 | 0.00 | 0.00 | 0.00 | 63 | 1009.9 |
| 20260507185503 | 67 | 98 | 0.0 | 2.0 | 0.00 | 0.00 | 0.00 | 63 | 1010.0 |
| 20260507185003 | 68 | 90 | 1.0 | 3.0 | 0.00 | 0.00 | 0.00 | 61 | 1009.9 |
| 20260507184506 | 67 | 98 | 0.0 | 3.0 | 0.00 | 0.00 | 0.00 | 61 | 1009.7 |
| 20260507184504 | 68 | 83 | 1.0 | 3.0 | 0.00 | 0.00 | 0.00 | 61 | 1010.0 |
| 20260507184017 | 68 | 68 | 0.0 | 2.0 | 0.00 | 0.00 | 0.00 | 62 | 1009.9 |
| 20260507183503 | 68 | 77 | 0.0 | 2.0 | 0.00 | 0.00 | 0.00 | 62 | 1009.9 |
| 20260507183057 | 67 | 69 | 0.0 | 2.0 | 0.00 | 0.00 | 0.00 | 62 | 1009.6 |
| 20260507183017 | 68 | 83 | 0.0 | 2.0 | 0.00 | 0.00 | 0.00 | 62 | 1010.0 |
| 20260507182503 | 68 | 82 | 0.0 | 2.0 | 0.00 | 0.00 | 0.00 | 63 | 1009.9 |
| 20260507182017 | 68 | 82 | 0.0 | 2.0 | 0.00 | 0.00 | 0.00 | 62 | 1009.9 |
| 20260507181600 | 67 | 82 | 0.0 | 2.0 | 0.00 | 0.00 | 0.00 | 61 | 1009.6 |
| 20260507181503 | 68 | 83 | 0.0 | 2.0 | 0.00 | 0.00 | 0.00 | 60 | 1010.0 |
| 20260507181017 | 68 | 85 | 1.0 | 3.0 | 0.00 | 0.00 | 0.00 | 60 | 1009.9 |
| 20260507180503 | 68 | 92 | 1.0 | 3.0 | 0.00 | 0.00 | 0.00 | 59 | 1009.9 |
| 20260507180044 | 68 | 101 | 0.0 | 3.0 | 0.00 | 0.00 | 0.00 | 59 | 1009.4 |
| 20260507180003 | 68 | 100 | 0.0 | 3.0 | 0.00 | 0.00 | 0.00 | 58 | 1009.8 |
| 20260507175503 | 69 | 106 | 1.0 | 3.0 | 0.00 | 0.00 | 0.00 | 59 | 1009.9 |
| 20260507175017 | 69 | 149 | 1.0 | 6.0 | 0.00 | 0.00 | 0.00 | 58 | 1009.8 |
| 20260507174547 | 68 | 153 | 0.0 | 5.0 | 0.00 | 0.00 | 0.00 | 57 | 1009.4 |
| 20260507174503 | 68 | 167 | 1.0 | 6.0 | 0.00 | 0.00 | 0.00 | 58 | 1009.9 |
| 20260507174017 | 69 | 171 | 1.0 | 4.0 | 0.00 | 0.00 | 0.00 | 56 | 1009.8 |
| 20260507173503 | 69 | 171 | 0.0 | 2.0 | 0.00 | 0.00 | 0.00 | 56 | 1009.8 |
| 20260507173038 | 69 | 171 | 0.0 | 2.0 | 0.00 | 0.00 | 0.00 | 58 | 1009.4 |
| 20260507173004 | 69 | 171 | 1.0 | 2.0 | 0.00 | 0.00 | 0.00 | 58 | 1009.8 |
| 20260507172503 | 69 | 171 | 1.0 | 2.0 | 0.00 | 0.00 | 0.00 | 55 | 1009.7 |
| 20260507172017 | 69 | 171 | 0.0 | 2.0 | 0.00 | 0.00 | 0.00 | 57 | 1009.8 |
| 20260507171536 | 69 | 171 | 0.0 | 2.0 | 0.00 | 0.00 | 0.00 | 56 | 1009.4 |
| 20260507171517 | 70 | 171 | 0.0 | 2.0 | 0.00 | 0.00 | 0.00 | 56 | 1009.7 |
| 20260507171003 | 70 | 171 | 1.0 | 2.0 | 0.00 | 0.00 | 0.00 | 57 | 1009.8 |
| 20260507170503 | 70 | 171 | 1.0 | 4.0 | 0.00 | 0.00 | 0.00 | 55 | 1010.0 |
| 20260507170017 | 69 | 171 | 0.0 | 5.0 | 0.00 | 0.00 | 0.00 | 55 | 1009.5 |
| 20260507170003 | 70 | 154 | 1.0 | 6.0 | 0.00 | 0.00 | 0.00 | 55 | 1009.7 |
| 20260507165517 | 70 | 99 | 1.0 | 6.0 | 0.00 | 0.00 | 0.00 | 56 | 1009.9 |
| 20260507165003 | 70 | 73 | 1.0 | 2.0 | 0.00 | 0.00 | 0.00 | 57 | 1009.9 |
| 20260507164607 | 70 | 60 | 0.0 | 3.0 | 0.00 | 0.00 | 0.00 | 57 | 1009.6 |
| 20260507164503 | 71 | 136 | 1.0 | 3.0 | 0.00 | 0.00 | 0.00 | 58 | 1009.9 |
| 20260507164003 | 71 | 144 | 2.0 | 3.0 | 0.00 | 0.00 | 0.00 | 57 | 1010.1 |
| 20260507163503 | 71 | 145 | 2.0 | 6.0 | 0.00 | 0.00 | 0.00 | 56 | 1009.9 |
| 20260507163003 | 71 | 141 | 2.0 | 8.0 | 0.00 | 0.00 | 0.00 | 56 | 1009.8 |
| 20260507162503 | 71 | 139 | 2.0 | 8.0 | 0.00 | 0.00 | 0.00 | 59 | 1009.9 |
| 20260507162003 | 70 | 145 | 2.0 | 7.0 | 0.00 | 0.00 | 0.00 | 59 | 1009.8 |
| 20260507161550 | 70 | 194 | 3.0 | 5.0 | 0.00 | 0.00 | 0.00 | 56 | 1009.4 |
| 20260507161503 | 70 | 146 | 2.0 | 5.0 | 0.00 | 0.00 | 0.00 | 57 | 1009.9 |
| 20260507161003 | 71 | 147 | 2.0 | 4.0 | 0.00 | 0.00 | 0.00 | 58 | 1009.8 |
| 20260507160506 | 70 | 145 | 2.0 | 7.0 | 0.00 | 0.00 | 0.00 | 58 | 1009.8 |
| 20260507160045 | 69 | 156 | 2.0 | 6.0 | 0.00 | 0.00 | 0.00 | 59 | 1009.4 |
| 20260507160004 | 70 | 115 | 2.0 | 7.0 | 0.00 | 0.00 | 0.00 | 59 | 1009.7 |
| 20260507155503 | 69 | 96 | 2.0 | 4.0 | 0.00 | 0.00 | 0.00 | 58 | 1009.8 |
| 20260507155003 | 70 | 149 | 2.0 | 6.0 | 0.00 | 0.00 | 0.00 | 56 | 1009.9 |
| 20260507154637 | 70 | 139 | 1.0 | 7.0 | 0.00 | 0.00 | 0.00 | 56 | 1009.6 |
| 20260507154503 | 70 | 171 | 2.0 | 8.0 | 0.00 | 0.00 | 0.00 | 58 | 1010.1 |
| 20260507154003 | 70 | 168 | 2.0 | 8.0 | 0.00 | 0.00 | 0.00 | 61 | 1009.9 |
| 20260507153504 | 70 | 149 | 2.0 | 6.0 | 0.00 | 0.00 | 0.00 | 62 | 1010.0 |
| 20260507153029 | 69 | 129 | 2.0 | 5.0 | 0.00 | 0.00 | 0.00 | 63 | 1009.7 |
| 20260507153003 | 69 | 109 | 2.0 | 6.0 | 0.00 | 0.00 | 0.00 | 64 | 1010.0 |
| 20260507152503 | 68 | 305 | 2.0 | 5.0 | 0.00 | 0.00 | 0.00 | 65 | 1010.1 |
| 20260507152017 | 68 | 305 | 2.0 | 5.0 | 0.00 | 0.00 | 0.00 | 64 | 1010.1 |
| 20260507151603 | 67 | 284 | 1.0 | 5.0 | 0.00 | 0.00 | 0.00 | 64 | 1009.8 |
| 20260507151503 | 68 | 339 | 2.0 | 7.0 | 0.00 | 0.00 | 0.00 | 65 | 1010.1 |
| 20260507151003 | 68 | 43 | 2.0 | 9.0 | 0.00 | 0.00 | 0.00 | 65 | 1010.0 |
| 20260507150503 | 68 | 166 | 3.0 | 9.0 | 0.00 | 0.00 | 0.00 | 65 | 1010.0 |
| 20260507150141 | 68 | 165 | 2.0 | 6.0 | 0.00 | 0.00 | 0.00 | 63 | 1009.6 |
| 20260507150003 | 69 | 130 | 3.0 | 7.0 | 0.00 | 0.00 | 0.00 | 63 | 1009.9 |
| 20260507145503 | 69 | 109 | 2.0 | 7.0 | 0.00 | 0.00 | 0.00 | 62 | 1010.1 |
| 20260507145003 | 69 | 109 | 2.0 | 9.0 | 0.00 | 0.00 | 0.00 | 63 | 1010.1 |
| 20260507144619 | 69 | 108 | 2.0 | 8.0 | 0.00 | 0.00 | 0.00 | 62 | 1009.9 |
| 20260507144503 | 70 | 108 | 2.0 | 9.0 | 0.00 | 0.00 | 0.00 | 62 | 1010.2 |
| 20260507144003 | 69 | 130 | 2.0 | 8.0 | 0.00 | 0.00 | 0.00 | 62 | 1010.2 |
| 20260507143503 | 69 | 156 | 2.0 | 8.0 | 0.00 | 0.00 | 0.00 | 63 | 1010.2 |
| 20260507143017 | 69 | 149 | 3.0 | 10.0 | 0.00 | 0.00 | 0.00 | 63 | 1010.3 |
| 20260507142503 | 69 | 131 | 3.0 | 10.0 | 0.00 | 0.00 | 0.00 | 62 | 1010.4 |
| 20260507142003 | 69 | 134 | 3.0 | 12.0 | 0.00 | 0.00 | 0.00 | 62 | 1010.4 |
| 20260507141503 | 69 | 142 | 3.0 | 12.0 | 0.00 | 0.00 | 0.00 | 62 | 1010.3 |
| 20260507141017 | 69 | 151 | 2.0 | 11.0 | 0.00 | 0.00 | 0.00 | 62 | 1010.3 |
| 20260507140503 | 69 | 142 | 2.0 | 6.0 | 0.00 | 0.00 | 0.00 | 63 | 1010.5 |
| 20260507140003 | 69 | 116 | 2.0 | 6.0 | 0.00 | 0.00 | 0.00 | 63 | 1010.6 |
| 20260507135503 | 69 | 123 | 2.0 | 8.0 | 0.00 | 0.00 | 0.00 | 63 | 1010.6 |
| 20260507135017 | 69 | 129 | 2.0 | 8.0 | 0.00 | 0.00 | 0.00 | 63 | 1010.6 |
| 20260507134517 | 68 | 129 | 2.0 | 8.0 | 0.00 | 0.00 | 0.00 | 64 | 1010.7 |
| 20260507134003 | 68 | 138 | 3.0 | 7.0 | 0.00 | 0.00 | 0.00 | 63 | 1010.6 |
| 20260507133503 | 68 | 156 | 3.0 | 8.0 | 0.00 | 0.00 | 0.00 | 63 | 1010.6 |
| 20260507133017 | 68 | 164 | 3.0 | 8.0 | 0.00 | 0.00 | 0.00 | 63 | 1010.5 |
| 20260507132503 | 68 | 160 | 3.0 | 11.0 | 0.00 | 0.00 | 0.00 | 63 | 1010.5 |
| 20260507132003 | 67 | 152 | 2.0 | 11.0 | 0.00 | 0.00 | 0.00 | 63 | 1010.7 |
| 20260507131503 | 67 | 175 | 2.0 | 7.0 | 0.00 | 0.00 | 0.00 | 64 | 1010.8 |
| 20260507131003 | 67 | 164 | 3.0 | 7.0 | 0.00 | 0.00 | 0.00 | 64 | 1010.8 |
| 20260507130503 | 67 | 128 | 3.0 | 11.0 | 0.00 | 0.01 | 0.00 | 63 | 1011.0 |
| 20260507130004 | 68 | 116 | 3.0 | 13.0 | 0.00 | 0.01 | 0.00 | 62 | 1011.2 |
| 20260507125503 | 68 | 138 | 3.0 | 13.0 | 0.00 | 0.01 | 0.00 | 63 | 1011.2 |
| 20260507125003 | 68 | 137 | 2.0 | 9.0 | 0.00 | 0.01 | 0.00 | 62 | 1011.2 |
| 20260507124503 | 69 | 126 | 2.0 | 9.0 | 0.00 | 0.01 | 0.00 | 63 | 1011.3 |
| 20260507124003 | 68 | 134 | 3.0 | 6.0 | 0.00 | 0.01 | 0.00 | 62 | 1011.3 |
| 20260507123503 | 68 | 137 | 3.0 | 7.0 | 0.00 | 0.01 | 0.00 | 60 | 1011.3 |
| 20260507123003 | 68 | 146 | 3.0 | 9.0 | 0.00 | 0.01 | 0.00 | 62 | 1011.3 |
| 20260507122503 | 68 | 143 | 3.0 | 9.0 | 0.00 | 0.01 | 0.00 | 61 | 1011.4 |
| 20260507122003 | 68 | 121 | 3.0 | 9.0 | 0.00 | 0.02 | 0.00 | 61 | 1011.4 |
| 20260507121503 | 68 | 124 | 3.0 | 9.0 | 0.00 | 0.02 | 0.00 | 62 | 1011.4 |
| 20260507121003 | 67 | 136 | 3.0 | 7.0 | 0.00 | 0.02 | 0.00 | 62 | 1011.5 |
| 20260507120503 | 67 | 133 | 3.0 | 7.0 | 0.00 | 0.02 | 0.00 | 61 | 1011.5 |
| 20260507120004 | 67 | 127 | 3.0 | 10.0 | 0.00 | 0.02 | 0.00 | 61 | 1011.5 |
| 20260507115503 | 67 | 129 | 3.0 | 10.0 | 0.00 | 0.02 | 0.00 | 62 | 1011.7 |
| 20260507115003 | 67 | 135 | 3.0 | 13.0 | 0.00 | 0.02 | 0.00 | 63 | 1011.7 |
| 20260507114503 | 67 | 147 | 3.0 | 13.0 | 0.00 | 0.02 | 0.00 | 62 | 1011.7 |
| 20260507114003 | 67 | 146 | 3.0 | 8.0 | 0.00 | 0.02 | 0.00 | 63 | 1011.8 |
| 20260507113503 | 67 | 131 | 2.0 | 8.0 | 0.00 | 0.02 | 0.00 | 63 | 1011.7 |
| 20260507113017 | 67 | 129 | 2.0 | 7.0 | 0.00 | 0.02 | 0.00 | 64 | 1011.8 |
| 20260507112503 | 67 | 131 | 2.0 | 6.0 | 0.00 | 0.02 | 0.00 | 62 | 1011.8 |
| 20260507112003 | 67 | 154 | 2.0 | 7.0 | 0.00 | 0.02 | 0.00 | 65 | 1011.8 |
| 20260507111517 | 66 | 138 | 2.0 | 7.0 | 0.00 | 0.02 | 0.00 | 66 | 1011.9 |
| 20260507111003 | 66 | 138 | 2.0 | 5.0 | 0.00 | 0.02 | 0.00 | 66 | 1011.9 |
| 20260507110503 | 65 | 128 | 2.0 | 5.0 | 0.00 | 0.02 | 0.00 | 68 | 1011.9 |
| 20260507110017 | 65 | 82 | 2.0 | 6.0 | 0.00 | 0.02 | 0.00 | 68 | 1012.0 |
| 20260507105503 | 64 | 96 | 2.0 | 7.0 | 0.00 | 0.02 | 0.00 | 68 | 1012.2 |
| 20260507105003 | 64 | 124 | 2.0 | 7.0 | 0.00 | 0.02 | 0.00 | 69 | 1012.3 |
| 20260507104504 | 64 | 81 | 2.0 | 7.0 | 0.00 | 0.02 | 0.00 | 70 | 1012.2 |
| 20260507104003 | 64 | 78 | 2.0 | 5.0 | 0.00 | 0.02 | 0.00 | 70 | 1012.3 |
| 20260507103503 | 64 | 103 | 2.0 | 5.0 | 0.00 | 0.02 | 0.00 | 70 | 1012.4 |
| 20260507103003 | 63 | 113 | 2.0 | 7.0 | 0.00 | 0.02 | 0.00 | 71 | 1012.5 |
| 20260507102517 | 63 | 94 | 1.0 | 7.0 | 0.00 | 0.02 | 0.00 | 70 | 1012.5 |
| 20260507102003 | 63 | 80 | 1.0 | 6.0 | 0.00 | 0.02 | 0.00 | 69 | 1012.6 |
| 20260507101517 | 63 | 79 | 1.0 | 4.0 | 0.00 | 0.02 | 0.00 | 69 | 1012.6 |
| 20260507101003 | 62 | 149 | 1.0 | 5.0 | 0.00 | 0.02 | 0.00 | 68 | 1012.8 |
| 20260507100503 | 62 | 154 | 2.0 | 7.0 | 0.00 | 0.02 | 0.00 | 69 | 1012.8 |
| 20260507100003 | 62 | 133 | 2.0 | 7.0 | 0.00 | 0.02 | 0.00 | 68 | 1012.7 |
| 20260507095503 | 62 | 135 | 2.0 | 5.0 | 0.00 | 0.02 | 0.00 | 68 | 1012.8 |
| 20260507095017 | 61 | 140 | 2.0 | 5.0 | 0.00 | 0.02 | 0.00 | 69 | 1012.9 |
| 20260507094503 | 61 | 126 | 2.0 | 4.0 | 0.00 | 0.02 | 0.00 | 68 | 1013.0 |
| 20260507094003 | 61 | 128 | 2.0 | 4.0 | 0.00 | 0.02 | 0.00 | 69 | 1013.1 |
| 20260507093503 | 60 | 141 | 2.0 | 3.0 | 0.00 | 0.02 | 0.00 | 69 | 1013.1 |
| 20260507093017 | 60 | 138 | 2.0 | 5.0 | 0.00 | 0.02 | 0.00 | 69 | 1013.3 |
| 20260507092503 | 60 | 119 | 2.0 | 7.0 | 0.00 | 0.02 | 0.00 | 70 | 1013.2 |
| 20260507092003 | 61 | 81 | 1.0 | 7.0 | 0.00 | 0.02 | 0.00 | 69 | 1013.3 |
| 20260507091503 | 60 | 89 | 1.0 | 3.0 | 0.00 | 0.02 | 0.00 | 70 | 1013.3 |
| 20260507091003 | 60 | 115 | 1.0 | 5.0 | 0.00 | 0.02 | 0.00 | 70 | 1013.3 |
| 20260507090503 | 59 | 131 | 1.0 | 5.0 | 0.00 | 0.03 | 0.00 | 70 | 1013.3 |
| 20260507090017 | 59 | 138 | 1.0 | 5.0 | 0.00 | 0.04 | 0.00 | 72 | 1013.2 |
| 20260507085503 | 59 | 134 | 1.0 | 5.0 | 0.00 | 0.04 | 0.00 | 72 | 1013.3 |
| 20260507085003 | 59 | 44 | 1.0 | 3.0 | 0.00 | 0.04 | 0.00 | 74 | 1013.3 |
| 20260507084517 | 58 | 91 | 2.0 | 3.0 | 0.00 | 0.04 | 0.00 | 73 | 1013.3 |
| 20260507084003 | 58 | 128 | 2.0 | 4.0 | 0.00 | 0.04 | 0.00 | 74 | 1013.4 |
| 20260507083503 | 58 | 153 | 2.0 | 4.0 | 0.00 | 0.05 | 0.00 | 75 | 1013.3 |
| 20260507083003 | 57 | 200 | 1.0 | 4.0 | 0.00 | 0.05 | 0.00 | 76 | 1013.5 |
| 20260507082503 | 56 | 190 | 1.0 | 4.0 | 0.00 | 0.05 | 0.00 | 78 | 1013.5 |
| 20260507082003 | 56 | 173 | 1.0 | 5.0 | 0.00 | 0.05 | 0.00 | 79 | 1013.4 |
| 20260507081503 | 55 | 174 | 1.0 | 5.0 | 0.00 | 0.05 | 0.00 | 78 | 1013.5 |
| 20260507081003 | 55 | 159 | 1.0 | 5.0 | 0.00 | 0.05 | 0.00 | 80 | 1013.6 |
| 20260507080517 | 55 | 158 | 1.0 | 4.0 | 0.00 | 0.06 | 0.00 | 81 | 1013.6 |
| 20260507080003 | 54 | 188 | 1.0 | 4.0 | 0.00 | 0.06 | 0.00 | 82 | 1013.6 |
| 20260507075503 | 54 | 193 | 0.0 | 4.0 | 0.00 | 0.07 | 0.00 | 82 | 1013.6 |
| 20260507075003 | 54 | 195 | 1.0 | 4.0 | 0.00 | 0.08 | 0.00 | 84 | 1013.6 |
| 20260507074503 | 53 | 195 | 1.0 | 4.0 | 0.00 | 0.08 | 0.00 | 84 | 1013.6 |
| 20260507074003 | 53 | 196 | 1.0 | 3.0 | 0.00 | 0.08 | 0.00 | 86 | 1013.5 |
| 20260507073503 | 52 | 205 | 1.0 | 4.0 | 0.00 | 0.08 | 0.00 | 87 | 1013.6 |
| 20260507073003 | 52 | 180 | 2.0 | 6.0 | 0.00 | 0.08 | 0.00 | 87 | 1013.7 |
| 20260507072503 | 51 | 167 | 3.0 | 6.0 | 0.00 | 0.08 | 0.00 | 88 | 1013.7 |
| 20260507072003 | 51 | 174 | 2.0 | 5.0 | 0.00 | 0.08 | 0.00 | 88 | 1013.7 |
| 20260507071503 | 50 | 191 | 2.0 | 5.0 | 0.00 | 0.08 | 0.00 | 89 | 1013.7 |
| 20260507071003 | 50 | 199 | 2.0 | 5.0 | 0.00 | 0.08 | 0.00 | 90 | 1013.8 |
| 20260507070517 | 50 | 193 | 2.0 | 5.0 | 0.00 | 0.08 | 0.00 | 90 | 1013.8 |
| 20260507070004 | 50 | 184 | 2.0 | 5.0 | 0.00 | 0.08 | 0.00 | 91 | 1013.8 |
| 20260507065517 | 49 | 181 | 3.0 | 5.0 | 0.00 | 0.08 | 0.00 | 91 | 1014.0 |
| 20260507065003 | 49 | 185 | 2.0 | 5.0 | 0.00 | 0.08 | 0.00 | 91 | 1013.9 |
| 20260507064503 | 49 | 210 | 2.0 | 5.0 | 0.00 | 0.08 | 0.00 | 91 | 1014.0 |
| 20260507064003 | 48 | 213 | 2.0 | 5.0 | 0.00 | 0.08 | 0.00 | 92 | 1014.0 |
| 20260507063503 | 48 | 196 | 2.0 | 5.0 | 0.00 | 0.08 | 0.00 | 92 | 1013.9 |
| 20260507063003 | 48 | 187 | 2.0 | 5.0 | 0.00 | 0.08 | 0.00 | 92 | 1014.0 |
| 20260507062503 | 48 | 186 | 2.0 | 4.0 | 0.00 | 0.08 | 0.00 | 92 | 1013.9 |
| 20260507062003 | 48 | 183 | 2.0 | 4.0 | 0.00 | 0.08 | 0.00 | 92 | 1013.9 |
| 20260507061503 | 47 | 186 | 2.0 | 5.0 | 0.00 | 0.08 | 0.00 | 92 | 1013.9 |
| 20260507061003 | 47 | 185 | 2.0 | 5.0 | 0.00 | 0.09 | 0.00 | 92 | 1014.0 |
| 20260507060503 | 47 | 179 | 2.0 | 4.0 | 0.00 | 0.09 | 0.00 | 92 | 1014.0 |
| 20260507060003 | 47 | 179 | 2.0 | 4.0 | 0.00 | 0.09 | 0.00 | 93 | 1014.1 |
| 20260507055517 | 47 | 188 | 2.0 | 4.0 | 0.00 | 0.09 | 0.00 | 93 | 1014.2 |
| 20260507055003 | 47 | 214 | 2.0 | 4.0 | 0.00 | 0.09 | 0.00 | 93 | 1014.2 |
| 20260507054503 | 47 | 270 | 1.0 | 3.0 | 0.00 | 0.09 | 0.00 | 93 | 1014.1 |
| 20260507054003 | 47 | 281 | 1.0 | 2.0 | 0.00 | 0.09 | 0.00 | 92 | 1014.1 |
| 20260507053503 | 46 | 282 | 0.0 | 2.0 | 0.00 | 0.09 | 0.00 | 92 | 1014.1 |
| 20260507053003 | 46 | 281 | 0.0 | 2.0 | 0.00 | 0.09 | 0.00 | 92 | 1014.0 |
| 20260507052503 | 46 | 281 | 1.0 | 2.0 | 0.00 | 0.09 | 0.00 | 92 | 1014.0 |
| 20260507052003 | 46 | 281 | 0.0 | 2.0 | 0.00 | 0.09 | 0.00 | 92 | 1014.1 |
| 20260507051503 | 46 | 282 | 1.0 | 2.0 | 0.00 | 0.09 | 0.00 | 92 | 1014.0 |
| 20260507051003 | 47 | 289 | 2.0 | 5.0 | 0.00 | 0.10 | 0.00 | 92 | 1013.9 |
| 20260507050503 | 47 | 294 | 3.0 | 6.0 | 0.00 | 0.10 | 0.00 | 92 | 1014.0 |
| 20260507050003 | 47 | 300 | 2.0 | 6.0 | 0.00 | 0.11 | 0.00 | 92 | 1014.0 |
| 20260507045503 | 47 | 303 | 2.0 | 5.0 | 0.00 | 0.13 | 0.00 | 92 | 1014.0 |
| 20260507045003 | 47 | 298 | 2.0 | 4.0 | 0.00 | 0.14 | 0.00 | 92 | 1014.0 |
| 20260507044517 | 47 | 286 | 1.0 | 4.0 | 0.00 | 0.15 | 0.00 | 92 | 1014.0 |
| 20260507044003 | 47 | 282 | 0.0 | 2.0 | 0.00 | 0.16 | 0.00 | 92 | 1013.9 |
| 20260507043503 | 47 | 282 | 1.0 | 2.0 | 0.00 | 0.18 | 0.00 | 92 | 1013.8 |
| 20260507043003 | 47 | 282 | 0.0 | 2.0 | 0.00 | 0.19 | 0.00 | 92 | 1013.9 |
| 20260507042503 | 47 | 282 | 0.0 | 2.0 | 0.00 | 0.20 | 0.00 | 92 | 1013.8 |
| 20260507042003 | 47 | 282 | 0.0 | 2.0 | 0.00 | 0.20 | 0.00 | 92 | 1014.0 |
| 20260507041503 | 47 | 282 | 0.0 | 2.0 | 0.00 | 0.21 | 0.00 | 92 | 1013.9 |
| 20260507041003 | 47 | 282 | 1.0 | 2.0 | 0.00 | 0.21 | 0.00 | 92 | 1013.8 |
| 20260507040503 | 47 | 282 | 1.0 | 2.0 | 0.00 | 0.21 | 0.00 | 92 | 1014.0 |
| 20260507040003 | 47 | 282 | 1.0 | 2.0 | 0.00 | 0.21 | 0.00 | 92 | 1014.1 |
| 20260507035503 | 47 | 283 | 1.0 | 2.0 | 0.00 | 0.21 | 0.00 | 92 | 1014.1 |
| 20260507035003 | 47 | 283 | 1.0 | 3.0 | 0.00 | 0.21 | 0.00 | 92 | 1014.1 |
| 20260507034503 | 47 | 283 | 1.0 | 3.0 | 0.00 | 0.21 | 0.00 | 92 | 1014.1 |
| 20260507034017 | 47 | 283 | 0.0 | 2.0 | 0.00 | 0.21 | 0.00 | 92 | 1014.1 |
| 20260507033503 | 47 | 283 | 0.0 | 1.0 | 0.00 | 0.21 | 0.00 | 92 | 1014.1 |
| 20260507033003 | 47 | 283 | 0.0 | 1.0 | 0.00 | 0.21 | 0.00 | 92 | 1014.1 |
| 20260507032503 | 47 | 283 | 0.0 | 2.0 | 0.00 | 0.21 | 0.00 | 91 | 1014.1 |
| 20260507032017 | 48 | 283 | 0.0 | 2.0 | 0.00 | 0.21 | 0.00 | 92 | 1014.2 |
| 20260507031517 | 48 | 278 | 1.0 | 3.0 | 0.00 | 0.21 | 0.00 | 92 | 1014.0 |
| 20260507031003 | 48 | 287 | 2.0 | 4.0 | 0.00 | 0.21 | 0.00 | 92 | 1014.1 |
| 20260507030503 | 48 | 289 | 2.0 | 5.0 | 0.00 | 0.21 | 0.00 | 92 | 1014.1 |
| 20260507030017 | 48 | 293 | 2.0 | 7.0 | 0.00 | 0.21 | 0.00 | 92 | 1014.2 |
| 20260507025503 | 48 | 296 | 2.0 | 7.0 | 0.00 | 0.21 | 0.00 | 92 | 1014.2 |
| 20260507025003 | 48 | 285 | 2.0 | 4.0 | 0.00 | 0.21 | 0.00 | 92 | 1014.1 |
| 20260507024503 | 48 | 279 | 2.0 | 4.0 | 0.00 | 0.21 | 0.00 | 92 | 1014.0 |
| 20260507024003 | 48 | 274 | 1.0 | 4.0 | 0.00 | 0.21 | 0.00 | 92 | 1014.1 |
| 20260507023518 | 48 | 264 | 1.0 | 3.0 | 0.00 | 0.21 | 0.00 | 92 | 1014.2 |
| 20260507023003 | 48 | 250 | 1.0 | 3.0 | 0.00 | 0.21 | 0.00 | 92 | 1014.2 |
| 20260507022503 | 48 | 227 | 1.0 | 3.0 | 0.00 | 0.21 | 0.00 | 92 | 1014.2 |
| 20260507022003 | 48 | 200 | 0.0 | 1.0 | 0.00 | 0.21 | 0.00 | 92 | 1014.3 |
| 20260507021517 | 48 | 200 | 0.0 | 1.0 | 0.00 | 0.21 | 0.00 | 92 | 1014.3 |
| 20260507021017 | 48 | 200 | 0.0 | 1.0 | 0.00 | 0.21 | 0.00 | 92 | 1014.2 |
| 20260507020503 | 48 | 200 | 0.0 | 1.0 | 0.00 | 0.21 | 0.00 | 92 | 1014.3 |
| 20260507020003 | 48 | 200 | 0.0 | 1.0 | 0.00 | 0.21 | 0.00 | 92 | 1014.2 |
| 20260507015503 | 48 | 200 | 0.0 | 1.0 | 0.00 | 0.21 | 0.00 | 92 | 1014.3 |
| 20260507015003 | 48 | 200 | 0.0 | 1.0 | 0.00 | 0.21 | 0.00 | 92 | 1014.3 |
| 20260507014503 | 48 | 200 | 0.0 | 2.0 | 0.00 | 0.21 | 0.00 | 92 | 1014.3 |
| 20260507014003 | 48 | 200 | 1.0 | 3.0 | 0.00 | 0.21 | 0.00 | 92 | 1014.3 |
| 20260507013517 | 48 | 241 | 1.0 | 4.0 | 0.00 | 0.21 | 0.00 | 91 | 1014.4 |
| 20260507013017 | 48 | 309 | 2.0 | 4.0 | 0.00 | 0.21 | 0.00 | 91 | 1014.5 |
| 20260507012517 | 48 | 290 | 2.0 | 4.0 | 0.00 | 0.21 | 0.00 | 92 | 1014.5 |
| 20260507012017 | 49 | 255 | 2.0 | 4.0 | 0.00 | 0.21 | 0.00 | 92 | 1014.5 |
| 20260507011503 | 49 | 248 | 1.0 | 3.0 | 0.00 | 0.21 | 0.00 | 91 | 1014.5 |
| 20260507011003 | 49 | 248 | 0.0 | 3.0 | 0.00 | 0.21 | 0.00 | 91 | 1014.4 |
| 20260507010503 | 49 | 248 | 0.0 | 2.0 | 0.00 | 0.21 | 0.00 | 91 | 1014.5 |
| 20260507010003 | 49 | 248 | 0.0 | 2.0 | 0.00 | 0.21 | 0.00 | 91 | 1014.5 |
| 20260507005503 | 49 | 248 | 0.0 | 2.0 | 0.00 | 0.21 | 0.00 | 91 | 1014.5 |
| 20260507005003 | 49 | 248 | 0.0 | 2.0 | 0.00 | 0.21 | 0.00 | 91 | 1014.5 |
| 20260507004503 | 50 | 248 | 1.0 | 3.0 | 0.00 | 0.21 | 0.00 | 91 | 1014.6 |
| 20260507004003 | 50 | 241 | 1.0 | 3.0 | 0.00 | 0.21 | 0.00 | 91 | 1014.7 |
| 20260507003503 | 49 | 207 | 1.0 | 3.0 | 0.00 | 0.21 | 0.00 | 91 | 1014.7 |
| 20260507003003 | 50 | 271 | 2.0 | 4.0 | 0.00 | 0.21 | 0.00 | 91 | 1014.8 |
| 20260507002503 | 50 | 300 | 2.0 | 4.0 | 0.00 | 0.21 | 0.00 | 91 | 1014.8 |
| 20260507002003 | 50 | 294 | 1.0 | 3.0 | 0.00 | 0.21 | 0.00 | 91 | 1014.8 |
| 20260507001503 | 50 | 294 | 0.0 | 3.0 | 0.00 | 0.21 | 0.00 | 91 | 1014.8 |
| 20260507001003 | 50 | 295 | 0.0 | 1.0 | 0.00 | 0.21 | 0.00 | 91 | 1014.8 |
| 20260507000503 | 50 | 295 | 0.0 | 1.0 | 0.00 | 0.21 | 0.00 | 91 | 1014.9 |
| 20260507000003 | 50 | 295 | 0.0 | 2.0 | 0.00 | 0.21 | 0.00 | 91 | 1014.9 |
| 20260506235517 | 50 | 305 | 1.0 | 3.0 | 0.00 | 0.21 | 0.00 | 91 | 1015.0 |
| 20260506235003 | 50 | 311 | 1.0 | 3.0 | 0.00 | 0.21 | 0.00 | 92 | 1014.9 |
| 20260506234503 | 50 | 309 | 1.0 | 3.0 | 0.00 | 0.21 | 0.00 | 91 | 1014.9 |
| 20260506234003 | 50 | 297 | 2.0 | 3.0 | 0.00 | 0.21 | 0.00 | 91 | 1015.0 |
| 20260506233503 | 50 | 291 | 2.0 | 3.0 | 0.00 | 0.21 | 0.00 | 91 | 1015.1 |
| 20260506233003 | 50 | 292 | 1.0 | 3.0 | 0.00 | 0.21 | 0.00 | 91 | 1015.2 |
| 20260506232503 | 50 | 292 | 0.0 | 2.0 | 0.00 | 0.21 | 0.00 | 91 | 1015.2 |
| 20260506232003 | 51 | 291 | 0.0 | 3.0 | 0.00 | 0.21 | 0.00 | 91 | 1015.1 |
| 20260506231503 | 51 | 298 | 1.0 | 6.0 | 0.00 | 0.21 | 0.00 | 91 | 1015.2 |
| 20260506231003 | 51 | 304 | 2.0 | 6.0 | 0.00 | 0.21 | 0.00 | 91 | 1015.2 |
| 20260506230503 | 51 | 313 | 1.0 | 4.0 | 0.00 | 0.21 | 0.00 | 91 | 1015.3 |
| 20260506230017 | 51 | 334 | 0.0 | 2.0 | 0.00 | 0.21 | 0.00 | 91 | 1015.4 |
| 20260506225503 | 51 | 334 | 0.0 | 1.0 | 0.00 | 0.21 | 0.00 | 90 | 1015.2 |
| 20260506225003 | 51 | 334 | 0.0 | 2.0 | 0.00 | 0.21 | 0.00 | 90 | 1015.3 |
| 20260506224503 | 51 | 334 | 0.0 | 2.0 | 0.00 | 0.21 | 0.00 | 90 | 1015.3 |
| 20260506224003 | 51 | 334 | 0.0 | 2.0 | 0.00 | 0.21 | 0.00 | 90 | 1015.2 |
| 20260506223517 | 51 | 0 | 0.0 | 0.0 | 0.00 | 0.21 | 0.00 | 90 | 1015.2 |
| 20260506223003 | 51 | 0 | 0.0 | 0.0 | 0.00 | 0.21 | 0.00 | 90 | 1015.4 |
| 20260506222503 | 51 | 0 | 0.0 | 0.0 | 0.00 | 0.21 | 0.00 | 89 | 1015.4 |
| 20260506222003 | 51 | 0 | 0.0 | 0.0 | 0.00 | 0.21 | 0.00 | 89 | 1015.5 |
| 20260506221504 | 51 | 0 | 0.0 | 0.0 | 0.00 | 0.21 | 0.00 | 89 | 1015.4 |
| 20260506221017 | 51 | 0 | 0.0 | 0.0 | 0.00 | 0.21 | 0.00 | 89 | 1015.4 |
| 20260506220503 | 52 | 0 | 0.0 | 0.0 | 0.00 | 0.21 | 0.00 | 89 | 1015.3 |
| 20260506220003 | 52 | 0 | 0.0 | 0.0 | 0.00 | 0.21 | 0.00 | 89 | 1015.4 |
| 20260506215503 | 52 | 0 | 0.0 | 0.0 | 0.00 | 0.21 | 0.21 | 89 | 1015.4 |
| 20260506215003 | 52 | 0 | 0.0 | 0.0 | 0.00 | 0.21 | 0.21 | 89 | 1015.4 |
| 20260506214517 | 52 | 0 | 0.0 | 0.0 | 0.00 | 0.21 | 0.21 | 89 | 1015.4 |
| 20260506214017 | 52 | 0 | 0.0 | 0.0 | 0.00 | 0.21 | 0.21 | 89 | 1015.5 |
| 20260506213503 | 52 | 335 | 0.0 | 2.0 | 0.00 | 0.21 | 0.21 | 89 | 1015.6 |